{"data":{"norad_id":59366,"epoch":"2026-05-24T20:16:19.416288Z","epoch_age_seconds":91499,"freshness":"FRESH","line1":"1 59366U 24060U   26144.84466917  .00001176  00000+0  52263-4 0  9999","line2":"2 59366  43.0026 189.4418 0001330 272.7066  87.3633 15.27579683121713","mean_motion":15.27579683,"eccentricity":0.000133,"inclination_deg":43.0026,"raan_deg":189.4418,"arg_perigee_deg":272.7066,"mean_anomaly_deg":87.3633,"bstar":5.2263e-5,"rev_number":12171,"period_min":94.266768275681,"perigee_km":482.13750737484,"apogee_km":483.96258312887,"semimajor_km":6861.1870452519,"source":"CELESTRAK","updated_at":"2026-05-25T13:38:18.912067Z"}}